Colwell, IA

8:25 AM CST on December 06, 2016 (GMT -0600)
Charles City Municipal

Weather History for KCCY - August, 2014

Change the Weather History Date:

Thursday, August 28, 2014

  Actual Average Record
Temperature  
Mean Temperature 64 °F -  
Max Temperature 69 °F 80 °F 96 °F (1955)
Min Temperature 60 °F 56 °F 39 °F (1986)
Growing Degree Days 14 (Base 50)    
Moisture  
Dew Point 63 °F    
Average Humidity 93    
Maximum Humidity 100    
Minimum Humidity 88    
Precipitation  
Precipitation 0.29 in - - ()
Sea Level Pressure  
Sea Level Pressure 30.03 in    
Wind  
Wind Speed 7 mph (ESE)    
Max Wind Speed 13 mph    
Max Gust Speed 18 mph    
Visibility 7 miles    
Events Rain    
Averages and records for this station are not official NWS values.
T = Trace of Precipitation, MM = Missing Value Source: NWS Daily Summary

Daily Weather History Graph

Daily Weather History Graph

Search for Another Location

Airport or City:

Trip Planner

Search our weather history database for the weather conditions in past years. The results will help you decide how hot, cold, wet, or windy it might be!

Date:

Astronomy

Aug. 28, 2014 Rise Set
Actual Time 6:30 AM CDT 7:52 PM CDT
Civil Twilight 6:00 AM CDT 8:21 PM CDT
Nautical Twilight 5:25 AM CDT 8:56 PM CDT
Astronomical Twilight 4:47 AM CDT 9:34 PM CDT
Moon 9:28 AM CDT (8/28) 9:10 PM CDT (8/28)
Length of Visible Light 14h 20m
Length of Day
13h 21m
Waxing Crescent, 9% of the Moon is Illuminated
Aug 28
Waxing Crescent
Sep 2
First Quarter
Sep 8
Full
Sep 15
Last Quarter
Sep 24
New

Hourly Weather History & Observations

Time (CDT) Temp. Dew Point Humidity Pressure Visibility Wind Dir Wind Speed Gust Speed Precip Events Conditions
12:15 AM 62.6 °F 59.0 °F 88% 30.15 in 10.0 mi East 4.6 mph - N/A   Clear
12:35 AM 62.6 °F 60.8 °F 94% 30.15 in 10.0 mi ENE 5.8 mph - N/A   Clear
12:55 AM 62.6 °F 59.0 °F 88% 30.15 in 10.0 mi East 4.6 mph - N/A   Clear
1:15 AM 62.6 °F 60.8 °F 94% 30.14 in 10.0 mi East 5.8 mph - N/A   Mostly Cloudy
1:35 AM 62.6 °F 60.8 °F 94% 30.13 in 10.0 mi ENE 8.1 mph - N/A   Overcast
1:55 AM 62.6 °F 59.0 °F 88% 30.13 in 10.0 mi ENE 6.9 mph - N/A   Overcast
2:15 AM 62.6 °F 59.0 °F 88% 30.12 in 10.0 mi East 6.9 mph - N/A   Mostly Cloudy
2:35 AM 62.6 °F 59.0 °F 88% 30.11 in 10.0 mi East 6.9 mph - N/A   Partly Cloudy
2:55 AM 60.8 °F 59.0 °F 94% 30.11 in 10.0 mi East 4.6 mph - N/A   Scattered Clouds
3:15 AM 60.8 °F 59.0 °F 94% 30.10 in 10.0 mi East 5.8 mph - N/A   Partly Cloudy
3:35 AM 60.8 °F 59.0 °F 94% 30.10 in 10.0 mi East 4.6 mph - N/A   Clear
3:55 AM 60.8 °F 59.0 °F 94% 30.10 in 10.0 mi East 6.9 mph - N/A   Partly Cloudy
4:15 AM 60.8 °F 59.0 °F 94% 30.09 in 10.0 mi East 5.8 mph - N/A   Mostly Cloudy
4:35 AM 62.6 °F 59.0 °F 88% 30.09 in 10.0 mi East 6.9 mph - N/A   Overcast
4:55 AM 62.6 °F 59.0 °F 88% 30.09 in 10.0 mi East 6.9 mph - N/A   Overcast
5:15 AM 60.8 °F 59.0 °F 94% 30.09 in 10.0 mi East 4.6 mph - N/A   Overcast
5:35 AM 62.6 °F 59.0 °F 88% 30.09 in 10.0 mi ESE 6.9 mph - N/A   Mostly Cloudy
5:55 AM 62.6 °F 59.0 °F 88% 30.08 in 10.0 mi East 6.9 mph - N/A   Mostly Cloudy
6:15 AM 62.6 °F 59.0 °F 88% 30.09 in 10.0 mi ESE 4.6 mph - N/A   Overcast
6:35 AM 62.6 °F 59.0 °F 88% 30.09 in 10.0 mi ESE 5.8 mph - N/A   Overcast
6:55 AM 62.6 °F 60.8 °F 94% 30.09 in 10.0 mi ESE 6.9 mph - N/A   Overcast
7:15 AM 64.4 °F 60.8 °F 88% 30.09 in 10.0 mi SE 6.9 mph - N/A   Overcast
7:35 AM 64.4 °F 60.8 °F 88% 30.09 in 10.0 mi ESE 6.9 mph 13.8 mph N/A   Overcast
7:55 AM 64.4 °F 60.8 °F 88% 30.09 in 10.0 mi SE 8.1 mph - N/A   Overcast
8:15 AM 64.4 °F 62.6 °F 94% 30.10 in 10.0 mi SE 6.9 mph - N/A   Overcast
8:35 AM 64.4 °F 62.6 °F 94% 30.10 in 10.0 mi SE 6.9 mph 12.7 mph N/A   Mostly Cloudy
8:55 AM 64.4 °F 62.6 °F 94% 30.10 in 8.0 mi SE 8.1 mph - N/A   Scattered Clouds
9:15 AM 64.4 °F 62.6 °F 94% 30.09 in 4.0 mi ESE 6.9 mph - N/A   Clear
9:55 AM 64.4 °F 62.6 °F 94% 30.09 in 4.0 mi ESE 8.1 mph - 0.04 in Rain Light Rain
10:15 AM 64.4 °F 62.6 °F 94% 30.09 in 1.8 mi SE 8.1 mph - N/A Rain Rain
10:35 AM 64.4 °F 62.6 °F 94% 30.09 in 2.5 mi ESE 6.9 mph - N/A Rain Light Rain
10:55 AM 64.4 °F 62.6 °F 94% 30.08 in 3.0 mi ESE 8.1 mph - 0.11 in Rain Light Rain
11:15 AM 64.4 °F 62.6 °F 94% 30.07 in 2.5 mi ESE 10.4 mph - N/A Rain Light Rain
11:35 AM 64.4 °F 62.6 °F 94% 30.07 in 2.5 mi ESE 10.4 mph - N/A Rain Light Rain
12:00 PM 64.4 °F 62.6 °F 94% 30.05 in 5.0 mi ESE 11.5 mph 17.3 mph N/A Rain Light Rain
12:20 PM 64.4 °F 62.6 °F 94% 30.05 in 6.0 mi ESE 8.1 mph - N/A   Scattered Clouds
12:35 PM 66.2 °F 62.6 °F 88% 30.04 in 9.0 mi ESE 11.5 mph - N/A   Mostly Cloudy
12:55 PM 66.2 °F 62.6 °F 88% 30.04 in 10.0 mi SE 8.1 mph 13.8 mph 0.01 in   Mostly Cloudy
1:15 PM 66.2 °F 62.6 °F 88% 30.03 in 3.0 mi ESE 11.5 mph - N/A   Overcast
1:35 PM 66.2 °F 64.4 °F 94% 30.02 in 3.0 mi ESE 10.4 mph - N/A   Overcast
1:55 PM 66.2 °F 64.4 °F 94% 30.01 in 5.0 mi ESE 12.7 mph - 0.02 in   Overcast
2:20 PM 66.2 °F 64.4 °F 94% 30.00 in 9.0 mi ESE 11.5 mph - N/A   Overcast
2:40 PM 66.2 °F 64.4 °F 94% 29.99 in 8.0 mi East 10.4 mph - N/A   Overcast
2:55 PM 68.0 °F 66.2 °F 94% 29.99 in 8.0 mi ESE 6.9 mph - N/A   Overcast
3:15 PM 68.0 °F 66.2 °F 94% 29.99 in 1.8 mi ESE 8.1 mph - N/A Rain Light Rain
3:35 PM 68.0 °F 66.2 °F 94% 29.98 in 2.5 mi SE 9.2 mph - N/A   Overcast
3:55 PM 68.0 °F 66.2 °F 94% 29.97 in 4.0 mi ESE 10.4 mph - 0.09 in   Overcast
4:15 PM 68.0 °F 66.2 °F 94% 29.97 in 3.0 mi ESE 9.2 mph 15.0 mph N/A   Overcast
4:35 PM 68.0 °F 66.2 °F 94% 29.96 in 8.0 mi SE 9.2 mph - N/A   Overcast
4:55 PM 68.0 °F 66.2 °F 94% 29.96 in 8.0 mi SSE 6.9 mph 12.7 mph 0.01 in   Overcast
5:15 PM 69.8 °F 68.0 °F 94% 29.96 in 5.0 mi SSE 6.9 mph - N/A Rain Light Rain
5:35 PM 69.8 °F 68.0 °F 94% 29.95 in 10.0 mi SSE 9.2 mph - N/A   Overcast
5:55 PM 69.8 °F 68.0 °F 94% 29.95 in 10.0 mi SSE 11.5 mph - N/A   Overcast
6:15 PM 69.8 °F 68.0 °F 94% 29.96 in 8.0 mi SSE 8.1 mph 15.0 mph N/A   Overcast
6:35 PM 69.8 °F 68.0 °F 94% 29.95 in 4.0 mi SSE 8.1 mph 15.0 mph N/A Rain Light Rain
6:55 PM 69.8 °F 68.0 °F 94% 29.95 in 5.0 mi SSE 8.1 mph - 0.01 in   Overcast
7:15 PM 69.8 °F 68.0 °F 94% 29.94 in 2.5 mi SE 8.1 mph - N/A   Overcast
7:35 PM 69.8 °F 68.0 °F 94% 29.94 in 4.0 mi SE 8.1 mph 13.8 mph N/A   Overcast
7:55 PM 68.0 °F 68.0 °F 100% 29.94 in 5.0 mi SE 8.1 mph - N/A   Overcast
8:15 PM 68.0 °F 68.0 °F 100% 29.94 in 6.0 mi SE 6.9 mph - N/A   Overcast
8:35 PM 68.0 °F 66.2 °F 94% 29.94 in 8.0 mi SE 9.2 mph - N/A   Overcast
8:55 PM 68.0 °F 66.2 °F 94% 29.94 in 9.0 mi SE 6.9 mph - N/A   Overcast
9:15 PM 68.0 °F 66.2 °F 94% 29.95 in 9.0 mi SSE 9.2 mph - N/A   Overcast
9:35 PM 68.0 °F 66.2 °F 94% 29.96 in 2.5 mi SSE 8.1 mph - N/A   Overcast
9:55 PM 68.0 °F 66.2 °F 94% 29.96 in 1.5 mi SSE 8.1 mph 15.0 mph N/A   Overcast
10:15 PM 68.0 °F 66.2 °F 94% 29.95 in 1.2 mi SE 9.2 mph - N/A   Overcast
10:35 PM 68.0 °F 66.2 °F 94% 29.95 in 1.2 mi SE 8.1 mph - N/A   Overcast
10:55 PM 68.0 °F 68.0 °F 100% 29.94 in 1.0 mi SE 6.9 mph 16.1 mph N/A   Overcast
11:15 PM 68.0 °F 68.0 °F 100% 29.93 in 1.0 mi SE 10.4 mph - N/A   Overcast
11:35 PM 68.0 °F 68.0 °F 100% 29.93 in 1.8 mi SSE 11.5 mph 18.4 mph N/A   Overcast
11:55 PM 68.0 °F 68.0 °F 100% 29.94 in 2.0 mi SSE 11.5 mph - N/A   Overcast